Volver al catálogo

MIDAS 4

ActivoMilitarPO
NORAD 192·PAYLOAD·🇺🇸 United States

Lanzado Oct 21, 1961 desde Vandenberg Space Force Base

Loading…

Próximos Pases (próximas 24 horas)

TLE

ActualizadoSource: Space-Track

Época: Sep 6, 2026, 09:44 UTC

1 00192U 61028A   26249.40594305  .00000023  00000-0  11904-1 0  9993
2 00192  95.8469 240.7002 0134254 248.1084 110.5446  8.67767929 55200

Sigue MIDAS 4 en tiempo real con AllMySat

Download on the App Store